Hourly Data Report for October 24, 2013

All times are specified in Local Standard Time (LST). Add 1 hour to adjust for Daylight Saving Time where and when it is observed.

GJOA HAVEN A
NUNAVUT

68°38'08.000" N
95°51'01.000" W
46.90 m
2302337
71597
YHK

Download Data

Hourly Data (October 2013)
Hourly Data Report for October 24, 2013
Temp Definition
°C
Dew Point Temp Definition
°C
Rel Hum Definition
%
Wind Dir Definition
10's deg

Wind Spd Definition
km/h
Visibility Definition
km
Stn Press Definition
kPa
Hmdx Definition


Wind Chill Definition


Weather Definition


TIME
00:00 Legend Double Dagger -7.2 -7.7 96 20 18 16.1 100.71   -14 LegendNANA
01:00 Legend Double Dagger -7.2 -7.9 95 20 17 16.1 100.68   -14 LegendNANA
02:00 Legend Double Dagger -7.1 -7.8 95 23 15 16.1 100.64   -13 LegendNANA
03:00 Legend Double Dagger -6.9 -7.4 96 20 11 16.1 100.58   -12 LegendNANA
04:00 Legend Double Dagger -5.7 -6.2 96 19 17 16.1 100.52   -12 LegendNANA
05:00 Legend Double Dagger -5.3 -5.7 97 18 18 16.1 100.43   -12 LegendNANA
06:00 Legend Double Dagger -5.0 -5.4 97 19 21 9.7 100.37   -12 LegendNANA
07:00 Legend Double Dagger -4.5 -4.8 98 21 18 9.7 100.31   -11 LegendNANA
08:00 Legend Double Dagger -4.1 -4.4 98 23 13 4.8 100.25   -9 LegendNANA
09:00 Legend Double Dagger -3.9 -4.2 98 27 17 11.3 100.21   -10 LegendNANA
10:00 Legend Double Dagger -3.9 -4.2 98 28 24 4.8 100.21   -11 LegendNANA
11:00 Legend Double Dagger -4.4 -4.8 97 28 21 11.3 100.20   -11 LegendNANA
12:00 Legend Double Dagger -4.1 -4.4 98 28 15 3.2 100.18   -9 LegendNANA
13:00 Legend Double Dagger -4.3 -4.7 97 29 24 14.5 100.17   -11 LegendNANA
14:00 Legend Double Dagger -4.8 -5.2 97 28 17 16.1 100.15   -11 LegendNANA
15:00 Legend Double Dagger -4.8 -5.2 97 27 17 9.7 100.13   -11 LegendNANA
16:00 Legend Double Dagger -5.0 -5.4 97 28 15 11.3 100.11   -11 LegendNANA
17:00 Legend Double Dagger -5.6 -6.1 96 31 18 4.8 100.10   -12 LegendNANA
18:00 Legend Double Dagger -6.6 -7.1 96 29 9 16.1 100.07   -11 LegendNANA
19:00 Legend Double Dagger -6.3 -6.7 97 27 13 16.1 100.04   -12 LegendNANA
20:00 Legend Double Dagger -6.3 -6.8 96 27 21 16.1 100.01   -13 LegendNANA
21:00 Legend Double Dagger -9.3 -10.2 93 30 17 16.1 99.98   -16 LegendNANA
22:00 Legend Double Dagger -7.7 -8.2 96 28 15 16.1 99.96   -14 LegendNANA
23:00 Legend Double Dagger -6.6 -7.1 96 29 22 6.4 99.96   -14 LegendNANA

Notes on Data Quality.

Legend

  • E = Estimated
  • M = Missing
  • NA = Not Available
  • ‡ = Partner data that is not subject to review by the National Climate Archives
Date modified: